www.pogodaiklimat.ru
ПОГОДА в Назарово

Архив погоды в Назарово (Красноярский край, Россия)

Время
(UTC), дата
06 22.06
09 22.06
12 22.06
15 22.06
18 22.06
21 22.06
00 23.06
03 23.06
06 23.06
09 23.06
12 23.06
15 23.06
18 23.06
21 23.06
00 24.06
03 24.06
06 24.06
09 24.06
12 24.06
15 24.06
18 24.06
21 24.06
00 25.06
03 25.06
06 25.06
09 25.06
12 25.06
15 25.06
18 25.06
21 25.06
00 26.06
03 26.06
06 26.06
09 26.06
12 26.06
15 26.06
18 26.06
21 26.06
00 27.06
03 27.06
06 27.06
09 27.06
12 27.06
15 27.06
18 27.06
21 27.06
00 28.06
03 28.06
06 28.06
09 28.06
12 28.06
15 28.06
18 28.06
21 28.06
00 29.06
03 29.06
Ветер
(напр.,м/с)
Видим. Явления Облачность Т
(С)
Тd
(С)
f
(%)
Тe
(С)
Тes
(С)
Комфортность P
(гПа)
Po
(гПа)
Тmin
(С)
Tmax
(С)
R
(мм)
R24
(мм)
S
(см)
ЮВ 3 10 км 9/4 600 м
[Cu med, cong Ci fib]
+25.4 +15.2 53 +28 +35 жарко 1003.2 974.4
Ю 4 10 км 9/3 600 м
[Cu hum Ac cast Ci fib]
+26.7 +13.8 45 +29 +32 жарко 1002.2 973.6
ЮВ 2 10 км 9/5 600 м
[Sc diur, vesp Ac cast Ci fib]
+24.1 +16.5 63 +28 +28 душно 1001.8 973.0 +26.9
штиль 0 10 км 9/6 600 м
[Cb cap Ac trans Ci fib]
+21.5 +16.2 72 +25 +25 комфорт 1002.0 973.0
З 1 н/о 3/0 2000 м
[Ac trans Ci fib]
+17.7 +15.7 88 +19 +19 1002.8 973.4
штиль 0 10 км 8/0
[Ac cast]
+15.7 +14.1 90 +15 +15 1002.6 972.9
З 1 10 км слаб. ливневой дождь 10/10 600 м
[Cb cap]
+16.3 +14.7 90 +17 +17 1002.5 972.9 +14.7 0.0
Ю 2 10 км {ливн. дождь} 8/5 600 м
[Cb calv Ac As]
+20.5 +16.0 75 +24 +27 комфорт 1001.1 972.0
10 км {ливн. дождь} н/о +22.7 +14.8 61 +26 +28 жарко 1000.3 971.4
10 км слаб. ливневой дождь н/о +20.9 +17.8 82 +25 +26 комфорт 999.6 970.5
З 2 10 км {ливн. дождь} 8/4 600 м
[Cb cap Ac cuf]
+20.9 +17.2 79 +25 +26 комфорт 1000.6 971.5 +22.9 2
Ю 1 10 км слаб. ливневой дождь 10/10 600 м
[Cb cap]
+16.3 +14.9 91 +17 +17 1000.9 971.3
СЗ 1 н/о слаб. ливневой дождь 10/10 600 м
[Cb cap]
+14.5 +13.1 91 +15 +15 999.5 969.9
штиль 0 10 км {ливн. дождь} 8/8 600 м
[Cb cap]
+13.2 +12.8 97 +13 +13 999.4 969.6
З 2 10 км {ливн. дождь} 8/8 600 м
[Cb cap]
+14.1 +12.6 91 +14 +14 1000.2 970.5 +12.2 3
З 4 10 км 10/10 600 м
[Cb cap]
+15.7 +12.6 82 +15 +15 1001.3 971.6
З 4 10 км 9/9 600 м
[Cb cap]
+19.7 +12.4 63 +21 +22 комфорт 1001.4 972.2
З 4
{11}
10 км {ливн. дождь} 8/8 600 м
[Cb cap Ci fib]
+21.1 +13.7 63 +24 +25 комфорт 1001.8 972.7
З 3 10 км {ливн. дождь} 8/6 600 м
[Cb cap Ci fib]
+21.3 +11.9 55 +23 +24 комфорт 1002.0 972.9 +22.0 0.6
ЮЗ 1 10 км 10/8 600 м
[Cb cap Ac trans Ci fib]
+17.7 +13.7 77 +19 +19 1003.5 974.0
З 1 н/о {ливн. дождь} 8/5 600 м
[Cb cap Ci fib]
+14.7 +13.8 94 +15 +15 1004.5 974.6
штиль 0 10 км 9/8 600 м
[Cb cap Ac trans Ci fib]
+13.9 +13.4 97 +13 +13 1004.6 974.7
ЮЗ 1 10 км 9/8 600 м
[Cb cap Ac trans Ci fib]
+16.1 +15.2 94 +17 +17 1004.7 975.0 +13.2 2
З 3 10 км 10/10 600 м
[Cb cap]
+19.1 +15.7 81 +21 +21 комфорт 1004.7 975.3
ЮЗ 4 10 км 9/6 600 м
[Cb cap Ac trans Ci fib]
+22.4 +15.2 64 +26 +29 жарко 1004.5 975.4
ЮЗ 4
{10}
10 км {ливн. дождь} 8/6 600 м
[Cb cap Ci fib]
+25.6 +17.5 61 +30 +32 душно 1002.3 973.6
З 3 10 км {ливн. дождь} 9/8 600 м
[Cb cap Ci fib]
+23.7 +16.9 66 +27 +28 жарко 1002.8 973.9 +27.4 0.0
Ю 1 10 км {гроза, ливн. дождь} 9/5 600 м
[Cb cap Ac lent Ci fib]
+20.4 +17.3 82 +25 +25 комфорт 1002.9 973.7
СВ 1 н/о {гроза, ливн. дождь} 9/8 600 м
[Cb cap Ac trans Ci fib]
+18.3 +15.9 86 +20 +20 1002.3 972.9
штиль 0 10 км 9/8 600 м
[Cb cap Ci fib]
+17.5 +16.3 93 +17 +17 1002.1 972.7
В 1 10 км 8/4 600 м
[Cu hum Ci fib]
+19.8 +17.0 84 +23 +25 комфорт 1002.1 972.9 +17.0 0.0
ЮЗ 2 10 км 6/3 600 м
[Cu Sc Cs]
+25.3 +17.1 60 +29 +36 душно 1001.2 972.6
Ю 2 10 км гроза без осадков 9/4 600 м
[Cb cap Cs]
+28.2 +17.5 52 +32 +40 душно 1000.3 972.0
СВ 1 10 км гроза, ливневой дождь 9/8 600 м
[Cb cap Ci fib]
+23.5 +19.5 78 +29 +31 душно 1000.3 971.5
В 3 10 км {гроза, ливн. дождь} 8/4 600 м
[Cu Sc Cs]
+26.2 +19.8 68 +32 +33 очень
душно
996.9 968.5 +29.6 0.0
В 2 10 км 9/3 600 м
[Cb cap Cs]
+24.0 +18.0 69 +28 +28 душно 995.8 967.2
штиль 0
{17}
50 км слаб. ливневой дождь ?/? +23.0 +13.4 55 +26 +26 жарко 997.6 968.8
З 1 10 км {гроза, ливн. дождь} 9/4 600 м
[Cb cap Cs]
+18.4 +16.4 88 +20 +20 996.5 967.4
З 3 10 км {гроза, ливн. дождь} 9/0
[Cs]
+20.7 +17.5 82 +25 +26 комфорт 998.5 969.5 +17.6 0.8
З 3 10 км 9/0
[Cs]
+23.7 +16.0 62 +27 +34 жарко 999.0 970.3
СЗ 1 10 км гроза без осадков 10/4 600 м
[Cb cap Cs]
+25.1 +18.0 65 +29 +38 душно 1003.5 974.8
В 2
{10}
10 км ливневой дождь, в посл. час гроза 8/8 600 м
[Cb cap Ci fib]
+21.3 +19.3 88 +26 +28 душно 998.1 969.2
СЗ 1 10 км {гроза, ливн. дождь} 8/0
[Cs]
+24.4 +16.9 63 +28 +30 душно 997.2 968.6 +25.6 12
В 2 10 км 10/3 600 м
[Cb cap Ac As]
+21.1 +19.0 88 +25 +25 комфорт 995.3 966.5
ЮЗ 3
{12}
н/о в посл. час гроза 10/10 600 м
[Cb cap]
+19.1 +17.0 88 +21 +21 комфорт 993.6 964.5
З 2 10 км 10/4 600 м
[Cb cap Cs]
+18.4 +16.9 91 +20 +20 993.7 964.6
З 6-15
{15}
10 км 9/8 600 м
[Cb cap Cs]
+18.2 +16.5 90 +18 +18 995.5 966.3 +17.6 3
З 6-12
{15}
10 км 8/4 600 м
[Cb calv Ac trans Ci fib]
+18.1 +12.8 71 +18 +19 1001.2 971.8 +16.4
З 5-11
{14}
10 км 8/8 600 м
[Cb cap]
+18.1 +10.7 62 +18 +20 1004.5 975.0
З 4
{11}
10 км 6/6 600 м
[Cu Sc]
+20.3 +10.8 54 +22 +25 комфорт 1005.7 976.4
З 4
{12}
10 км 3/3 600 м
[Cu Sc]
+19.8 +11.3 58 +21 +22 комфорт 1006.9 977.4 +21.4
ЮЗ 1 10 км 4/3 1000 м
[Sc Ci fib]
+16.0 +11.6 75 +17 +17 1007.8 978.0
СВ 1 н/о 8/4 1000 м
[Sc Ci fib]
+13.7 +11.8 88 +14 +14 1008.5 978.4
В 1 10 км 9/9 1000 м
[Sc]
+12.6 +11.5 93 +13 +13 1008.5 978.3
В 1 10 км 8/3 1000 м
[Sc Ac trans Ci fib]
+14.4 +12.0 85 +15 +16 1008.2 978.2 +12.3
В 2 10 км 8/5 1000 м
[Sc Ac trans Ci fib]
+19.1 +11.7 62 +21 +24 комфорт 1006.6 977.1
Местоположение метеостанции Назарово (Красноярский край, Россия): широта 56.03 долгота 90.32 высота над уровнем моря 256 м.
В архиве по умолчанию представлена погода в Назарово за последнюю неделю. Архивные данные за месяц целиком и за предыдущие месяцы, начиная с января 2011 года, Вы можете получить, выбрав интересующий диапазон дат из раскрывающегося списка и нажав кнопку "Найти!".
*Определитесь, кто Вы:
Внимание! Время в таблицах - всемирное. Для получения местного времени необходимо прибавить поправку, которая равна 7 ч.
Смотрите также архив погоды в соседних городах и на ближайших метеорологических станциях:
Партнеры нашего сайта:      
Пояснения к столбцам:
  • Ветер - указаны скорость ветра в м/с - средняя за 10 мин, порывы в срок и между сроками (в фигурных скобках) и направление, откуда дует ветер: С - северный,
  • СВ - северо-восточный, В - восточный, ЮВ - юго-восточный, Ю - южный, ЮЗ - юго-западный, З - западный, СЗ - северо-западный.
  • Видимость - горизонтальная дальность видимости в метрах или километрах. При видимости от 1 до 10 км при отсутствии осадков обычно наблюдается дымка, при ухудшении видимости до 1 км и менее - туман. В сухую погоду видимость может ухудшаться дымом, пылью или мглою.
  • Явления - указаны атмосферные явления, наблюдавшиеся в срок или в последний час перед сроком; фигурными скобками обозначены явления, наблюдавшиеся между сроками (за 1-3 часа до срока); квадратными скобками обозначены град или гололедные отложения с указанием их диаметра в мм.
  • Облачность - указаны через наклонную черту общая и нижняя облачность в баллах и высота нижней границы облаков в метрах; квадратными скобками обозначены формы облаков: Ci - перистые, Cs - перисто-слоистые, Cc - перисто-кучевые, Ac - высококучевые, As - высокослоистые, Sc - слоисто-кучевые, Ns - слоисто-дождевые, Cu - кучевые, Cb - кучево-дождевые. Подробнее классификацию облаков см. в Атласе облаков (PDF).
  • T - Температура воздуха - температура, измеренная на высоте 2 м над землей.
  • Td - Температура точки росы - температура, при понижении до которой содержащийся в воздухе водяной пар достигнет насыщения.
  • f - Относительная влажность воздуха - влажноcть воздуха, измеренная на высоте 2 м над землей.
  • Te - Эффективная температура - температура, которую ощущает одетый по сезону человек в тени. Характеристика душности погоды. При расчете учитывается влияние влажности воздуха и скорости ветра на теплоощущения человека.
  • Tes - Эффективная температура на солнце - температура, которую ощущает человек, с поправкой на солнечный нагрев. Характеристика знойности погоды. Зависит от высоты солнца над горизонтом, облачности и скорости ветра. Ночью, в пасмурную погоду, а также при ветре 12 м/с и более поправка равна нулю.
  • P - Атмосферное давление - приведенное к уровню моря атмосферное давление.
  • Po - Атмосферное давление - измеренное на уровне метеостанции атмосферное давление.
  • Tmin - Минимальная температура - минимум температуры воздуха на высоте 2 м над землей.
  • Tmax - Максимальная температура - максимум температуры воздуха на высоте 2 м над землей.
  • R - Количество осадков - Количество выпавших осадков за период времени, мм. При наведении курсора мыши на число - период времени, за который выпало указанное количество осадков.
  • R24 - Количество осадков - Количество выпавших осадков за 24 часа, мм.
  • S - Снежный покров - Высота снежного покрова, см. При наведении курсора мыши на число - состояние снежного покрова и степень покрытия местности в баллах.